Flag for Germany Weather past 2 weeks in Gronau (Westfalen), North Rhine-Westphalia, Germany

Now
54 °F

Passing clouds.


Feels Like: 54 °F
Forecast: 40 / 62 °F
Wind: 2 mph from Southeast

Location: Twenthe


UV Index: 3 (Moderate)

Visibility: 17 mi


Pressure: 30.46 "Hg

Humidity: 44%

Dew point: 33 °F

Location of Gronau (Westfalen)Location

Historic Weather in Gronau (Westfalen)

°F

Gronau (Westfalen) temperature yesterday

Maximum temperature yesterday: 50 °F (at 4:00 PM)
Minimum temperature yesterday: 37 °F (at 11:00 PM)
Average temperature yesterday: 45 °F

Past Weeks' High & Low Weather Summary

 TemperatureHumidityPressure
High72 °F (Apr 3, 4:00 PM)100% (Apr 2, 3:00 AM)30.47 "Hg (Apr 2, 3:00 AM)
Low28 °F (Apr 16, 7:00 AM)38% (Apr 3, 6:00 PM)29.60 "Hg (Apr 3, 6:00 PM)
Average52 °F75%29.99 "Hg
* Reported Apr 1 11:00 AM — Apr 16 11:00 AM, Gronau (Westfalen), Weather by CustomWeather, © 2014

Note: Actual official high and low records may vary slightly from our data, if they occured in-between our weather recording intervals... More about our weather records

Advertising

Historic Weather Conditions — Data for Previous 24 hours

 ConditionsComfort  
Time TempWeatherWind HumidityBarometerVisibility
11:00 AM
Apr 16
51 °FSunny.2 mph57%30.47 "Hg16 mi
10:00 AM47 °FSunny.N/A70%30.47 "Hg15 mi
9:00 AM42 °FSunny.N/A85%30.46 "Hg11 mi
8:00 AM33 °FSunny.No wind98%30.45 "Hg7 mi
7:00 AM28 °FSunny.No wind94%30.45 "Hg4 mi
6:00 AM28 °FFog.No wind98%30.44 "Hg1 mi
5:00 AM29 °FPassing clouds.No wind98%30.43 "Hg1 mi
4:00 AM30 °FFog.No wind98%30.42 "Hg3 mi
3:00 AM30 °FFog.No wind98%30.42 "Hg4 mi
2:00 AM31 °FClear.No wind97%30.42 "Hg6 mi
12:00 AM35 °FClear.No wind87%30.40 "Hg11 mi
11:00 PM
Apr 15
37 °FPassing clouds.2 mph77%30.40 "Hg12 mi
10:00 PM43 °FPassing clouds.5 mph64%30.38 "Hg12 mi
9:00 PM45 °FOvercast.5 mph62%30.37 "Hg13 mi
8:00 PM46 °FOvercast.6 mph60%30.34 "Hg12 mi
7:00 PM48 °FPartly sunny.6 mph57%30.33 "Hg13 mi
6:00 PM49 °FScattered clouds.6 mph53%30.33 "Hg12 mi
5:00 PM49 °FPartly sunny.8 mph51%30.33 "Hg13 mi
4:00 PM50 °FPartly sunny.7 mph53%30.33 "Hg14 mi
3:00 PM48 °FOvercast.7 mph58%30.33 "Hg16 mi
2:00 PM48 °FOvercast.7 mph54%30.33 "Hg8 mi
1:00 PM48 °FPartly sunny.7 mph60%30.32 "Hg19 mi
12:00 PM47 °FPartly sunny.7 mph67%30.32 "Hg16 mi
Weather by CustomWeather, © 2014

See weather overview